Flag for U.S.A. Weather past 2 weeks in Key West, Florida, U.S.A.

Now
82 °F

Passing clouds.


Feels Like: 91 °F
Forecast: 83 / 90 °F
Wind: 6 mph from East

Location: Key West International Airport

Current Time: Sep 1, 2015 at 4:48:22 AM

Latest Report: Sep 1, 2015 at 3:53 AM


Visibility: 10 mi

Pressure: 30.02 "Hg

Humidity: 88%

Dew point: 78 °F

Location of Key WestLocation

Historic Weather in Key West — Graph

°F

Key West temperature yesterday

Maximum temperature yesterday: 88 °F (at 12:53 PM)
Minimum temperature yesterday: 82 °F (at 12:53 AM)
Average temperature yesterday: 85 °F

Past Weeks' High & Low Weather Summary

 TemperatureHumidityPressure
High93 °F (Aug 24, 2:53 PM)97% (Aug 30, 10:01 AM)30.07 "Hg (Aug 30, 10:01 AM)
Low76 °F (Aug 29, 10:53 PM)57% (Aug 28, 12:53 PM)29.86 "Hg (Aug 30, 2:53 AM)
Average85 °F75%29.97 "Hg
* Reported Aug 17 3:53 AM — Sep 1 3:53 AM, Key West, Weather by CustomWeather, © 2015

Note: Actual official high and low records may vary slightly from our data, if they occured in-between our weather recording intervals... More about our weather records

Advertising

Key West weather history for previous 24 hours

 ConditionsComfort  
Time TempWeatherWind HumidityBarometerVisibility
3:53 AM
Tue, Sep 1
82 °FPassing clouds.6 mph88%30.02 "Hg10 mi
2:53 AM82 °FClear.5 mph88%30.03 "Hg10 mi
1:53 AM83 °FClear.3 mph82%30.03 "Hg10 mi
12:53 AM83 °FClear.5 mph85%30.04 "Hg10 mi
10:53 PM
Mon, Aug 31
83 °FClear.3 mph88%30.07 "Hg10 mi
9:53 PM84 °FClear.3 mph85%30.07 "Hg10 mi
8:53 PM84 °FClear.3 mph85%30.05 "Hg10 mi
7:53 PM85 °FSunny.6 mph68%30.03 "Hg10 mi
6:53 PM86 °FSunny.3 mph65%30.02 "Hg10 mi
5:53 PM87 °FSunny.7 mph63%30.01 "Hg10 mi
4:53 PM88 °FSunny.7 mph63%30.02 "Hg10 mi
3:53 PM88 °FSunny.9 mph63%30.02 "Hg10 mi
2:53 PM88 °FSunny.9 mph63%30.04 "Hg10 mi
1:53 PM88 °FPassing clouds.12 mph67%30.05 "Hg10 mi
12:53 PM88 °FSunny.10 mph63%30.05 "Hg10 mi
11:53 AM87 °FSunny.12 mph67%30.05 "Hg10 mi
10:53 AM87 °FPassing clouds.13 mph67%30.03 "Hg10 mi
9:53 AM85 °FBroken clouds.12 mph70%30.03 "Hg10 mi
8:53 AM84 °FPassing clouds.15 mph74%30.01 "Hg10 mi
7:53 AM83 °FPassing clouds.15 mph74%30.00 "Hg10 mi
6:53 AM83 °FPassing clouds.12 mph74%29.98 "Hg10 mi
5:53 AM83 °FPartly cloudy.13 mph77%29.96 "Hg10 mi
4:53 AM83 °FPassing clouds.12 mph77%29.96 "Hg10 mi
Weather by CustomWeather, © 2015

See weather overviewHow to use our weather pages